Location: Home
(42.5358°N, 72.7383°W)
Time: 18:24:29
(UTC-05:00)

A-11 Canister half - Pass Details

Date: 04 December 2021
Orbit: 1516 x 1684 km, 47.2° (Epoch: 18 January)

Event Time Altitude Azimuth Distance (km) Brightness Sun altitude
Rises 06:04:44 0° 221° (SW) 4,723 11.4 -10.8°
Reaches altitude 10° 06:07:49 10° 217° (SW) 3,763 10.9 -10.2°
Maximum altitude 06:17:06 57° 142° (SE) 1,851 9.8 -8.6°
Drops below altitude 10° 06:26:44 10° 67° (ENE) 3,903 11.8 -7.0°
Sets 06:29:59 0° 64° (ENE) 4,910 12.3 -6.5°
